{"data":{"norad_id":66456,"intl_designator":"2025-262A","name":"STARLINK-35643","alt_names":[],"object_type":"PAYLOAD","status":"ACTIVE","operator":null,"country":"US","launch_date":"2025-11-15","launch_site_code":"AFETR","launch_vehicle":null,"mission":null,"orbit_class":"UNKNOWN","rcs_meters":null,"size_class":null,"mass_kg":null,"dimensions":null,"purposes":["comms"],"wikipedia_slug":null,"has_3d_model":false,"image_url":null,"decayed_at":null,"tle_current":{"epoch":"2026-05-25T04:45:01.946016Z","epoch_age_seconds":58737,"freshness":"FRESH","line1":"1 66456U 25262A   26145.19793919  .00015073  00000+0  55574-3 0  9994","line2":"2 66456  42.9968 224.4232 0001060 289.2452  70.8285 15.27603447 30603","mean_motion":15.27603447,"eccentricity":0.000106,"inclination_deg":42.9968,"raan_deg":224.4232,"arg_perigee_deg":289.2452,"mean_anomaly_deg":70.8285,"bstar":0.00055574,"rev_number":3060,"period_min":94.265301824761,"perigee_km":482.25160990051,"apogee_km":483.70616646881,"semimajor_km":6861.1158881847,"source":"CELESTRAK","updated_at":"2026-05-25T13:38:21.213498Z"}}}